Regional Weather Roundup
Issued by NWS

Home | Current Version | Previous Version | Graphics & Text | Print | Product List | Glossary On
Versions: 1 2 3 4 5 6 7 8 9 10 11 12 13 14 15 16 17 18 19 20 21 22 23 24 25 26 27 28 29 30 31 32 33 34 35 36 37 38 39 40 41 42 43 44 45 46 47 48 49 50
000
ASUS43 KBIS 031520
RWRND

NORTH DAKOTA REGIONAL WEATHER ROUNDUP
NATIONAL WEATHER SERVICE BISMARCK ND
900 AM CST TUE MAR 03 2015

NOTE: "FAIR" INDICATES FEW OR NO CLOUDS BELOW 12,000 FEET WITH NO
SIGNIFICANT WEATHER AND/OR OBSTRUCTIONS TO VISIBILITY.


NDZ001>003-009>011-017-031600-
NORTHWEST NORTH DAKOTA

CITY           SKY/WX    TMP DP  RH WIND       PRES   REMARKS
WILLISTON      MOSUNNY    4  -5  66 NW17      30.11R WCI -16
MINOT          CLOUDY     1  -7  68 W21       30.01R WCI -21
MINOT AFB      SUNNY      0  -6  74 NW24      29.99R WCI -24
$$

NDZ018>021-031>035-040>046-031600-
SOUTHWEST NORTH DAKOTA

CITY           SKY/WX    TMP DP  RH WIND       PRES   REMARKS
BISMARCK       PTSUNNY    7  -4  60 NW24G38   30.03R WCI -14
DICKINSON      MOSUNNY    7  -3  64 NW21G30   29.98S WCI -13
GARRISON         N/A      2  -5  72 NW26G36   30.01R WCI -22
HETTINGER ARPT PTSUNNY    6  -4  63 NW23G32   30.02R WCI -15
$$

NDZ004>008-012>016-024-026-027-054-031600-
NORTHEAST NORTH DAKOTA

CITY           SKY/WX    TMP DP  RH WIND       PRES   REMARKS
GRAND FORKS    FLURRIES  11   3  70 NW25G35   29.85R WCI -10
GRND FRKS AFB  CLOUDY     9  -2  61 NW22G36   29.86R WCI -11
DEVILS LAKE    SUNNY      3  -8  60 NW30      29.89R WCI -21
$$

NDZ022-023-025-028>030-036>039-047>053-031600-
SOUTHEAST NORTH DAKOTA

CITY           SKY/WX    TMP DP  RH WIND       PRES   REMARKS
FARGO          LGT SNOW  14   6  70 NW26G35   29.85R WCI  -6
JAMESTOWN      MOSUNNY    6  -3  66 NW28G38   29.90R WCI -17
$$




USA.gov is the U.S. government's official web portal to all federal, state and local government web resources and services.